{"data":{"norad_id":48485,"epoch":"2026-05-24T20:52:51.532032Z","epoch_age_seconds":83391,"freshness":"FRESH","line1":"1 48485U 21040BK  26144.87004088  .00001277  00000+0  52912-4 0  9997","line2":"2 48485  53.1590 199.4146 0001194  87.2574 272.8564 15.31699419278139","mean_motion":15.31699419,"eccentricity":0.0001194,"inclination_deg":53.159,"raan_deg":199.4146,"arg_perigee_deg":87.2574,"mean_anomaly_deg":272.8564,"bstar":5.2912e-5,"rev_number":27813,"period_min":94.013223621912,"perigee_km":469.92397103694,"apogee_km":471.55948327698,"semimajor_km":6848.878727157,"source":"CELESTRAK","updated_at":"2026-05-25T13:38:16.723643Z"}}